Regional Weather Roundup
Issued by NWS Albany, NY

Home | Current Version | Previous Version | Text Only | Print | Product List | Glossary On
Versions: 1 2 3 4 5 6 7 8 9 10 11 12 13 14 15 16 17 18 19 20 21 22 23 24 25 26 27 28 29 30 31 32 33 34 35 36 37 38 39 40 41 42 43 44 45 46 47 48 49 50
000
ASUS41 KALY 230910
RWRALY

NEW YORK STATE HOURLY WEATHER ROUNDUP
NATIONAL WEATHER SERVICE ALBANY NY
400 AM EST FRI FEB 23 2018

NOTE: "FAIR" INDICATES FEW OR NO CLOUDS BELOW 12,000 FEET WITH NO
SIGNIFICANT WEATHER AND/OR NO OBSTRUCTIONS TO VISIBILITY.

NYZ032-033-038>043-046>054-057>066-NYZ062>081-082-084-231000-
EAST


CITY           SKY/WX    TMP DP  RH WIND       PRES   REMARKS
ALBANY         FAIR      21  17  84 N7        30.69S WCI  12
GLENS FALLS    FAIR      15  14  95 CALM      30.69F
POUGHKEEPSIE   CLOUDY    30  28  92 N3        30.67R
NEWBURGH       CLOUDY    30  30 100 VRB6      30.66S WCI  24
MONTGOMERY     CLOUDY    31  28  89 N7        30.64S WCI  24
WHITE PLAINS   MOCLDY    33  31  92 E5        30.63R WCI  29
ISLIP          CLOUDY    35  32  88 NE6       30.65R WCI  30
NEW YORK CITY  CLOUDY    37  32  82 NE10      30.65R WCI  30
CENTRAL PARK   CLOUDY    36  32  85 NE10      30.67R WCI  28
$$

NYZ005>009-017-018-044>046-055-056-231000-
CENTRAL


CITY           SKY/WX    TMP DP  RH WIND       PRES   REMARKS
FULTON         MOCLDY    31  29  92 SE6       30.56F WCI  25
SYRACUSE       CLOUDY    30  30 100 E12       30.58F WCI  20
ROME           CLOUDY    30  27  88 E7        30.63F WCI  23
ELMIRA         CLOUDY    35  33  92 E7        30.52F WCI  29
BINGHAMTON     FOG       29  29 100 E6        30.52F VSB 1/2 WCI  23
MONTICELLO     CLOUDY    28  27  96 E6        30.60S WCI  22
$$

NYZ026>034-041>043-087-231000-
NORTH


CITY           SKY/WX    TMP DP  RH WIND       PRES   REMARKS
WATERTOWN      FAIR      22  20  92 NE5       30.59F WCI  16
FORT DRUM      NOT AVBL
OGDENSBURG     FAIR      22  20  93 E3        30.63F
MASSENA        FAIR      17  15  92 E5        30.66F WCI  10
SARANAC LAKE   FAIR      13  11  92 MISG      30.56F
PLATTSBURGH    FAIR      18  14  84 CALM      30.70F
$$

NYZ001>004-010>016-019>021-085-231000-
WEST


CITY           SKY/WX    TMP DP  RH WIND       PRES   REMARKS
NIAGARA FALLS  CLOUDY    35  30  82 E10       30.47F WCI  27
BUFFALO        CLOUDY    34  31  88 E9        30.46F WCI  27
DUNKIRK        CLOUDY    35  33  92 NE9       30.41F WCI  28
JAMESTOWN        N/A    N/A N/A N/A MISG        N/A
WELLSVILLE     CLOUDY    33  32  96 SE10G18   30.42F FOG     WCI  25
ROCHESTER      CLOUDY    34  32  92 E9        30.53F WCI  27
PENN YAN       CLOUDY    32  30  92 CALM      30.52F FOG
$$

             KEY
       WCI = WIND CHILL INDEX
       VSB = VISIBILITY
       HX  = HEAT INDEX
$$



USA.gov is the U.S. government's official web portal to all federal, state and local government web resources and services.